• In Belarus
  • List of Countries
  • For 7 days
  • Water Temperature
  • Weather Map
  • Weather Widgets
  • user-avatar
    Login

    Hourly Weather Asadabad

    Today, 13 November, Wednesday

    Time Temperature Precipitation Wind Pressure Humidity
    00:00 +13°C° 0 mm 4 mps 660 mmHg 45%
    01:00 +12°C° 0 mm 4 mps 660 mmHg 45%
    02:00 +12°C° 0 mm 4 mps 659 mmHg 46%
    03:00 +12°C° 0 mm 4 mps 659 mmHg 47%
    04:00 +11°C° 0 mm 3 mps 659 mmHg 47%
    05:00 +11°C° 0 mm 3 mps 659 mmHg 47%
    06:00 +12°C° 0 mm 3 mps 660 mmHg 46%
    07:00 +12°C° 0 mm 3 mps 660 mmHg 45%
    08:00 +13°C° 0 mm 3 mps 660 mmHg 43%
    09:00 +16°C° 0 mm 3 mps 661 mmHg 38%
    10:00 +18°C° 0 mm 2 mps 662 mmHg 33%
    11:00 +20°C° 0 mm 2 mps 662 mmHg 27%
    12:00 +20°C° 0 mm 2 mps 662 mmHg 28%
    13:00 +21°C° 0 mm 2 mps 661 mmHg 28%
    14:00 +21°C° 0 mm 2 mps 661 mmHg 29%
    15:00 +20°C° 0 mm 2 mps 661 mmHg 33%
    16:00 +19°C° 0 mm 2 mps 661 mmHg 38%
    17:00 +18°C° 0 mm 1 mps 660 mmHg 42%
    18:00 +17°C° 0 mm 2 mps 661 mmHg 42%
    19:00 +17°C° 0 mm 2 mps 661 mmHg 41%
    20:00 +16°C° 0 mm 3 mps 661 mmHg 41%
    21:00 +16°C° 0 mm 3 mps 661 mmHg 41%
    22:00 +16°C° 0 mm 3 mps 661 mmHg 41%
    23:00 +14°C° 0 mm 3 mps 661 mmHg 42%

    Tomorrow, 14 November, Thursday

    Time Temperature Precipitation Wind Pressure Humidity
    00:00 +14°C° 0 mm 3 mps 661 mmHg 42%
    01:00 +14°C° 0 mm 3 mps 661 mmHg 42%
    02:00 +14°C° 0 mm 3 mps 660 mmHg 42%
    03:00 +14°C° 0 mm 3 mps 660 mmHg 44%
    04:00 +14°C° 0 mm 4 mps 660 mmHg 47%
    05:00 +14°C° 0 mm 4 mps 660 mmHg 49%
    06:00 +14°C° 0 mm 4 mps 660 mmHg 50%
    07:00 +14°C° 0 mm 4 mps 660 mmHg 52%
    08:00 +14°C° 0 mm 3 mps 661 mmHg 53%
    09:00 +16°C° 0 mm 3 mps 661 mmHg 50%
    10:00 +17°C° 0 mm 3 mps 662 mmHg 47%
    11:00 +18°C° 0 mm 3 mps 662 mmHg 44%
    12:00 +18°C° 0 mm 3 mps 662 mmHg 44%
    13:00 +18°C° 0 mm 3 mps 661 mmHg 43%
    14:00 +18°C° 0 mm 3 mps 661 mmHg 43%
    15:00 +17°C° 0 mm 3 mps 661 mmHg 46%
    16:00 +17°C° 0 mm 3 mps 661 mmHg 48%
    17:00 +16°C° 0 mm 2 mps 660 mmHg 51%
    18:00 +16°C° 0 mm 2 mps 661 mmHg 54%
    19:00 +15°C° 0 mm 2 mps 661 mmHg 57%
    20:00 +14°C° 0 mm 2 mps 661 mmHg 60%
    21:00 +14°C° 0 mm 2 mps 661 mmHg 61%
    22:00 +14°C° 0 mm 2 mps 661 mmHg 63%
    23:00 +14°C° 0 mm 2 mps 661 mmHg 65%

    Day after tomorrow, 15 November, Friday

    Time Temperature Precipitation Wind Pressure Humidity
    00:00 +13°C° 0 mm 2 mps 661 mmHg 66%
    01:00 +13°C° 0 mm 2 mps 661 mmHg 66%
    02:00 +13°C° 0 mm 2 mps 660 mmHg 66%
    03:00 +13°C° 0 mm 2 mps 660 mmHg 67%
    04:00 +13°C° 0 mm 2 mps 660 mmHg 67%
    05:00 +12°C° 0 mm 2 mps 659 mmHg 68%
    06:00 +13°C° 0 mm 2 mps 660 mmHg 65%
    07:00 +13°C° 0 mm 2 mps 660 mmHg 63%
    08:00 +13°C° 0 mm 2 mps 660 mmHg 60%
    09:00 +14°C° 0 mm 2 mps 661 mmHg 57%
    10:00 +15°C° 0 mm 2 mps 661 mmHg 55%
    11:00 +16°C° 0 mm 1 mps 661 mmHg 52%
    12:00 +15°C° 1.1 mm 2 mps 660 mmHg 63%
    13:00 +13°C° 1.1 mm 2 mps 660 mmHg 73%
    14:00 +12°C° 1.1 mm 2 mps 659 mmHg 84%
    15:00 +18°C° 0.1 mm 1 mps 660 mmHg 47%
    16:00 +16°C° 0.1 mm 1 mps 659 mmHg 52%
    17:00 +16°C° 0.1 mm 1 mps 659 mmHg 57%
    18:00 +15°C° 0 mm 1 mps 659 mmHg 59%
    19:00 +15°C° 0 mm 2 mps 659 mmHg 61%
    20:00 +15°C° 0 mm 2 mps 660 mmHg 63%
    21:00 +14°C° 0.2 mm 2 mps 660 mmHg 66%
    22:00 +14°C° 0.2 mm 2 mps 659 mmHg 70%
    23:00 +13°C° 0.2 mm 2 mps 659 mmHg 74%

    16 November, Saturday

    Time Temperature Precipitation Wind Pressure Humidity
    00:00 +13°C° 1.2 mm 2 mps 659 mmHg 76%
    01:00 +13°C° 1.2 mm 2 mps 659 mmHg 79%
    02:00 +12°C° 1.2 mm 2 mps 658 mmHg 81%
    03:00 +12°C° 0.5 mm 2 mps 658 mmHg 81%
    04:00 +12°C° 0.5 mm 2 mps 658 mmHg 81%
    05:00 +10°C° 0.5 mm 2 mps 658 mmHg 81%
    06:00 +12°C° 0.1 mm 2 mps 658 mmHg 79%
    07:00 +12°C° 0.1 mm 2 mps 659 mmHg 76%
    08:00 +12°C° 0.1 mm 2 mps 659 mmHg 74%
    09:00 +14°C° 0 mm 2 mps 659 mmHg 69%
    10:00 +15°C° 0 mm 1 mps 660 mmHg 64%
    11:00 +16°C° 0 mm 1 mps 660 mmHg 59%
    12:00 +16°C° 0.1 mm 1 mps 660 mmHg 57%
    13:00 +18°C° 0.1 mm 1 mps 660 mmHg 56%
    14:00 +18°C° 0.1 mm 1 mps 659 mmHg 55%
    15:00 +16°C° 0.1 mm 1 mps 659 mmHg 59%
    16:00 +16°C° 0.1 mm 1 mps 659 mmHg 62%
    17:00 +15°C° 0.1 mm 1 mps 659 mmHg 66%
    18:00 +15°C° 0 mm 1 mps 659 mmHg 68%
    19:00 +14°C° 0 mm 1 mps 659 mmHg 70%
    20:00 +13°C° 0 mm 1 mps 660 mmHg 72%
    21:00 +13°C° 0 mm 1 mps 660 mmHg 70%
    22:00 +13°C° 0 mm 1 mps 660 mmHg 68%
    23:00 +13°C° 0 mm 1 mps 660 mmHg 66%

    17 November, Sunday

    Time Temperature Precipitation Wind Pressure Humidity
    00:00 +12°C° 0 mm 1 mps 660 mmHg 63%
    01:00 +12°C° 0 mm 2 mps 660 mmHg 60%
    02:00 +12°C° 0 mm 2 mps 659 mmHg 57%
    03:00 +12°C° 0 mm 2 mps 659 mmHg 56%
    04:00 +10°C° 0 mm 2 mps 659 mmHg 54%
    05:00 +10°C° 0 mm 2 mps 659 mmHg 52%
    06:00 +12°C° 0 mm 2 mps 659 mmHg 50%
    07:00 +12°C° 0 mm 2 mps 660 mmHg 48%
    08:00 +13°C° 0 mm 2 mps 660 mmHg 47%
    09:00 +15°C° 0 mm 2 mps 661 mmHg 42%
    10:00 +16°C° 0 mm 1 mps 661 mmHg 38%
    11:00 +19°C° 0 mm 1 mps 661 mmHg 34%
    12:00 +19°C° 0 mm 1 mps 661 mmHg 34%
    13:00 +20°C° 0 mm 1 mps 661 mmHg 34%
    14:00 +21°C° 0 mm 1 mps 660 mmHg 33%
    15:00 +19°C° 0 mm 1 mps 660 mmHg 39%
    16:00 +18°C° 0 mm 1 mps 659 mmHg 45%
    17:00 +16°C° 0 mm 1 mps 659 mmHg 50%
    18:00 +15°C° 0 mm 1 mps 659 mmHg 51%
    19:00 +15°C° 0 mm 2 mps 659 mmHg 52%
    20:00 +14°C° 0 mm 2 mps 659 mmHg 52%
    21:00 +14°C° 0 mm 2 mps 659 mmHg 51%
    22:00 +13°C° 0 mm 2 mps 659 mmHg 49%
    23:00 +13°C° 0 mm 2 mps 659 mmHg 47%

    18 November, Monday

    Time Temperature Precipitation Wind Pressure Humidity
    00:00 +13°C° 0 mm 2 mps 658 mmHg 46%
    01:00 +12°C° 0 mm 3 mps 658 mmHg 45%
    02:00 +12°C° 0 mm 3 mps 658 mmHg 44%
    03:00 +11°C° 0 mm 3 mps 657 mmHg 43%
    04:00 +11°C° 0 mm 3 mps 657 mmHg 43%
    05:00 +11°C° 0 mm 3 mps 657 mmHg 43%
    06:00 +11°C° 0 mm 3 mps 657 mmHg 42%
    07:00 +12°C° 0 mm 3 mps 657 mmHg 42%
    08:00 +12°C° 0 mm 3 mps 658 mmHg 42%
    09:00 +15°C° 0 mm 2 mps 658 mmHg 37%
    10:00 +18°C° 0 mm 1 mps 659 mmHg 33%
    11:00 +19°C° 0 mm 1 mps 659 mmHg 28%
    12:00 +20°C° 0 mm 1 mps 659 mmHg 28%
    13:00 +20°C° 0 mm 1 mps 659 mmHg 28%
    14:00 +21°C° 0 mm 1 mps 658 mmHg 28%
    15:00 +19°C° 0 mm 1 mps 658 mmHg 33%
    16:00 +18°C° 0 mm 1 mps 658 mmHg 39%
    17:00 +16°C° 0 mm 1 mps 657 mmHg 44%
    18:00 +15°C° 0 mm 1 mps 657 mmHg 46%
    19:00 +14°C° 0 mm 1 mps 657 mmHg 47%
    20:00 +13°C° 0 mm 1 mps 658 mmHg 49%
    21:00 +13°C° 0 mm 1 mps 658 mmHg 48%
    22:00 +13°C° 0 mm 1 mps 658 mmHg 48%
    23:00 +12°C° 0 mm 2 mps 658 mmHg 47%
    Show more